Weather History for Hereford, TX

Change the Weather History Date:

Thursday, January 10, 2013

  Actual Average (KAMA) Record (KAMA)
Temperature  
Mean Temperature 42 °F 37 °F  
Max Temperature 51 °F 50 °F 74 °F (1990)
Min Temperature 33 °F 23 °F -5 °F (1962)
Degree Days  
Heating Degree Days 23 28  
Month to date heating degree days 286  
Since 1 July heating degree days 2003  
Cooling Degree Days 0 0  
Month to date cooling degree days 0  
Year to date cooling degree days 0  
Moisture  
Dew Point 36 °F    
Average Humidity 86    
Maximum Humidity 100    
Minimum Humidity 62    
Precipitation  
Precipitation 0.00 in 0.02 in 0.48 in (1918)
Month to date precipitation 0.20  
Year to date precipitation 0.20  
Snow  
Snow 0.00 in 0.10 in 4.80 in (1918)
Month to date snowfall 1.1  
Since 1 July snowfall 7.5  
Snow Depth -    
Sea Level Pressure  
Sea Level Pressure 29.90 in    
Wind  
Wind Speed - (North)    
Max Wind Speed -    
Max Gust Speed -    
Visibility 8 miles    
Events Rain    
T = Trace of Precipitation, MM = Missing Value Source: NWS Daily Summary

Daily Weather History Graph

Daily Weather History Graph

Search for Another Location

Airport:

Trip Planner

Search our weather history database for the weather conditions in past years. The results will help you decide how hot, cold, wet, or windy it might be!

Date:

Astronomy

Jan. 10, 2013 Rise Set
Actual Time 7:57 AM CST 5:56 PM CST
Civil Twilight 7:29 AM CST 6:24 PM CST
Nautical Twilight 6:58 AM CST 6:55 PM CST
Astronomical Twilight 6:27 AM CST 7:26 PM CST
Moon 6:39 AM CST (1/10) 5:06 PM CST (1/10)
Length of Visible Light 10h 54m
Length of Day
9h 59m
Waning Crescent, 2% of the Moon is Illuminated
Jan 10
Waning Crescent
Jan 11
New
Jan 18
First Quarter
Jan 26
Full
Feb 3
Last Quarter

Hourly Weather History & Observations

Time (CST) Temp. Dew Point Humidity Pressure Visibility Wind Dir Wind Speed Gust Speed Precip Events Conditions
12:15 AM 35.6 °F 33.8 °F 93% 30.12 in 10.0 mi North - - N/A   Light Drizzle
12:35 AM 35.6 °F 33.8 °F 93% 30.10 in 10.0 mi North - - N/A Rain Light Rain
12:55 AM 35.6 °F 33.8 °F 93% 30.09 in 10.0 mi North - - N/A Rain Light Rain
2:15 AM 35.6 °F 33.8 °F 93% 30.06 in 7.0 mi North - - N/A   Overcast
2:35 AM 35.6 °F 33.8 °F 93% 30.05 in 7.0 mi North - - N/A   Overcast
2:55 AM 35.6 °F 33.8 °F 93% 30.05 in 4.0 mi North - - N/A   Overcast
3:15 AM 35.6 °F 33.8 °F 93% 30.02 in 1.2 mi North - - N/A   Overcast
3:35 AM 35.6 °F 33.8 °F 93% 30.02 in 1.0 mi North - - N/A   Overcast
3:55 AM 35.6 °F 33.8 °F 93% 30.00 in 1.0 mi North - - N/A   Overcast
4:15 AM 35.6 °F 33.8 °F 93% 30.00 in 1.2 mi North - - N/A   Overcast
4:35 AM 35.6 °F 33.8 °F 93% 30.01 in 1.2 mi North - - N/A   Overcast
4:55 AM 35.6 °F 33.8 °F 93% 30.01 in 1.8 mi North - - N/A   Overcast
5:15 AM 35.6 °F 33.8 °F 93% 30.00 in 1.8 mi North - - N/A   Overcast
5:35 AM 35.6 °F 33.8 °F 93% 29.98 in 1.8 mi North - - N/A   Overcast
5:55 AM 35.6 °F 33.8 °F 93% 29.98 in 3.0 mi North - - N/A   Overcast
6:35 AM 35.6 °F 33.8 °F 93% 29.96 in 7.0 mi North - - N/A   Overcast
6:55 AM 35.6 °F 33.8 °F 93% 29.96 in 10.0 mi North - - N/A   Overcast
7:35 AM 33.8 °F 33.8 °F 100% 29.98 in 10.0 mi North - - N/A   Mostly Cloudy
7:55 AM 33.8 °F 33.8 °F 100% 29.96 in 10.0 mi North - - N/A   Overcast
8:15 AM 33.8 °F 33.8 °F 100% 29.96 in 10.0 mi North - - N/A   Overcast
8:35 AM 33.8 °F 33.8 °F 100% 29.95 in 10.0 mi North - - N/A   Overcast
8:55 AM 33.8 °F 33.8 °F 100% 29.95 in 10.0 mi North - - N/A   Overcast
9:15 AM 35.6 °F 33.8 °F 93% 29.97 in 7.0 mi North - - N/A   Overcast
9:35 AM 35.6 °F 33.8 °F 93% 29.98 in 7.0 mi North - - N/A   Overcast
9:55 AM 35.6 °F 33.8 °F 93% 29.97 in 10.0 mi North - - N/A   Overcast
10:15 AM 35.6 °F 33.8 °F 93% 29.95 in 10.0 mi North - - N/A   Overcast
10:35 AM 35.6 °F 33.8 °F 93% 29.96 in 10.0 mi North - - N/A   Overcast
10:55 AM 35.6 °F 33.8 °F 93% 29.95 in 10.0 mi North - - N/A   Overcast
11:15 AM 35.6 °F 33.8 °F 93% 29.95 in 10.0 mi North - - N/A   Overcast
11:35 AM 35.6 °F 35.6 °F 100% 29.95 in 10.0 mi North - - N/A   Overcast
11:55 AM 35.6 °F 35.6 °F 100% 29.94 in 10.0 mi North - - N/A   Overcast
12:15 PM 37.4 °F 35.6 °F 93% 29.93 in 10.0 mi North - - N/A   Overcast
12:35 PM 37.4 °F 35.6 °F 93% 29.90 in 10.0 mi North - - N/A   Overcast
12:55 PM 37.4 °F 37.4 °F 100% 29.88 in 10.0 mi North - - N/A   Overcast
1:15 PM 41.0 °F 37.4 °F 87% 29.88 in 10.0 mi North - - N/A   Overcast
1:35 PM 42.8 °F 37.4 °F 81% 29.85 in 10.0 mi North - - N/A   Mostly Cloudy
1:55 PM 42.8 °F 37.4 °F 81% 29.85 in 10.0 mi North - - N/A   Scattered Clouds
2:15 PM 44.6 °F 37.4 °F 76% 29.85 in 10.0 mi North - - N/A   Mostly Cloudy
2:35 PM 46.4 °F 39.2 °F 76% 29.84 in 10.0 mi North - - N/A   Overcast
2:55 PM 46.4 °F 39.2 °F 76% 29.84 in 10.0 mi North - - N/A   Scattered Clouds
3:15 PM 50.0 °F 41.0 °F 71% 29.84 in 10.0 mi North - - N/A   Clear
3:35 PM 50.0 °F 42.8 °F 76% 29.83 in 10.0 mi North - - N/A   Clear
3:55 PM 51.8 °F 41.0 °F 67% 29.82 in 10.0 mi North - - N/A   Clear
4:15 PM 51.8 °F 42.8 °F 71% 29.81 in 10.0 mi North - - N/A   Clear
4:35 PM 51.8 °F 44.6 °F 76% 29.81 in 10.0 mi North - - N/A   Clear
4:55 PM 51.8 °F 41.0 °F 67% 29.80 in 10.0 mi North - - N/A   Clear
5:15 PM 51.8 °F 39.2 °F 62% 29.80 in 10.0 mi North - - N/A   Clear
5:35 PM 48.2 °F 41.0 °F 76% 29.78 in 10.0 mi North - - N/A   Clear
5:55 PM 48.2 °F 39.2 °F 71% 29.77 in 10.0 mi North - - N/A   Clear
6:15 PM 46.4 °F 39.2 °F 76% 29.78 in 10.0 mi North - - N/A   Clear
6:35 PM 46.4 °F 37.4 °F 71% 29.79 in 10.0 mi North - - N/A   Clear
6:55 PM 46.4 °F 37.4 °F 71% 29.79 in 10.0 mi North - - N/A   Clear
7:15 PM 44.6 °F 37.4 °F 76% 29.79 in 10.0 mi North - - N/A   Clear
7:35 PM 44.6 °F 37.4 °F 76% 29.79 in 10.0 mi North - - N/A   Clear
7:55 PM 44.6 °F 37.4 °F 76% 29.80 in 10.0 mi North - - N/A   Clear
8:15 PM 42.8 °F 37.4 °F 81% 29.80 in 10.0 mi North - - N/A   Clear
8:35 PM 42.8 °F 37.4 °F 81% 29.80 in 10.0 mi North - - N/A   Clear
8:55 PM 42.8 °F 35.6 °F 76% 29.78 in 10.0 mi North - - N/A   Clear
9:15 PM 44.6 °F 35.6 °F 71% 29.79 in 10.0 mi North - - N/A   Clear
9:35 PM 42.8 °F 35.6 °F 76% 29.79 in 10.0 mi North - - N/A   Clear
9:55 PM 41.0 °F 35.6 °F 81% 29.80 in 10.0 mi North - - N/A   Clear
10:15 PM 41.0 °F 35.6 °F 81% 29.80 in 10.0 mi North - - N/A   Clear
10:35 PM 41.0 °F 35.6 °F 81% 29.79 in 10.0 mi North - - N/A   Clear
10:55 PM 41.0 °F 35.6 °F 81% 29.78 in 10.0 mi North - - N/A   Clear
11:15 PM 39.2 °F 35.6 °F 87% 29.80 in 10.0 mi North - - N/A   Clear
11:55 PM 39.2 °F 33.8 °F 81% 29.77 in 10.0 mi North - - N/A   Clear